MPEC 2002-Q44 : 2002 GB10

The following Minor Planet Electronic Circular may be linked-to from your own Web pages, but must not otherwise be redistributed electronically.


Read MPEC 2002-Q43 Read MPEC 2002-Q45


M.P.E.C. 2002-Q44                                Issued 2002 Aug. 29, 19:37 UT

     The Minor Planet Electronic Circulars contain information on unusual
         minor planets and routine data on comets.  They are published
   on behalf of Commission 20 of the International Astronomical Union by the
          Minor Planet Center, Smithsonian Astrophysical Observatory,
                          Cambridge, MA 02138, U.S.A.

             Prepared using the Tamkin Foundation Computer Network

                              MPC@CFA.HARVARD.EDU
          URL http://cfa-www.harvard.edu/iau/mpc.html  ISSN 1523-6714

                                   2002 GB10

                           Revision to MPEC 2002-H11

Observations:
     K02G10B   1997 03 09.28819 10 12 25.69 +06 16 39.7                      261
     K02G10B   1997 03 09.32986 10 12 25.25 +06 16 40.9                      261
     K02G10B  C2000 04 10.30499 11 16 53.43 -05 01 32.3          19.0 R      608
     K02G10B  C2000 04 10.31649 11 16 53.35 -05 01 31.8          19.0 R      608
     K02G10B  C2000 04 10.32762 11 16 53.22 -05 01 30.9          18.9 R      608
     K02G10B  C2001 03 19.41390 11 45 44.48 -09 32 52.4          18.9 R      608
     K02G10B  C2001 03 19.42432 11 45 44.36 -09 32 52.0          18.7 R      608
     K02G10B  C2002 01 14.50581 12 19 39.39 -13 41 28.6          18.9 R      608
     K02G10B  C2002 01 14.51656 12 19 39.40 -13 41 29.6          19.0 R      608
     K02G10B  C2002 01 14.52711 12 19 39.37 -13 41 30.3          19.0 R      608
     K02G10B  C2002 02 26.36821 12 15 41.99 -13 52 24.2          19.0 R      644
     K02G10B  C2002 02 26.38922 12 15 41.76 -13 52 23.6          19.0 R      644
     K02G10B  C2002 04 04.35942 12 08 58.94 -13 23 27.7          18.9 R      608
     K02G10B  C2002 04 04.36991 12 08 58.91 -13 23 27.5          18.8 R      608
     K02G10B  C2002 04 04.38068 12 08 58.75 -13 23 26.9          18.9 R      608
     K02G10B  C2002 04 05.28544 12 08 48.86 -13 22 27.7          18.9 R      644
     K02G10B  C2002 04 05.30615 12 08 48.57 -13 22 26.9          18.8 R      644
     K02G10B  C2002 04 05.33964 12 08 48.26 -13 22 24.3          18.8 R      644

Observer details:
261 Palomar Mountain-DSS.  Measurers R. Haver, A. Pelloni, G. Forti.
    1.2-m Oschin Schidt.
608 Haleakala-NEAT/MSSS.  Observers E. F. Helin, S. Pravdo, K. Lawrence,
    P. Kervin, R. Maeda, J. Africano, M. Hicks.  Measurers R. Haver,
    A. Pelloni, G. Forti.  1.2-m reflector + CCD.
644 Palomar Mountain/NEAT.  Observers E. F. Helin, S. Pravdo, K. Lawrence,
    M. Hicks, R. Thicksten.  Measurers R. Haver, A. Pelloni, G. Forti.
    1.2-m Schmidt + CCD.

Orbital elements:
2002 GB10
Epoch 2002 Nov. 22.0 TT = JDT 2452600.5                 MPC
M 359.56840              (2000.0)            P               Q
n   0.00781945     Peri.  238.85401     -0.95281822     +0.25684691
a  25.1392356      Node   315.45013     -0.13310158     -0.83248475
e   0.3958782      Incl.   13.33154     -0.27280288     -0.49091628
P 126.05           H    7.6           G   0.15           U   2
Residuals in seconds of arc
970309 261  0.1+  0.6+    020408 246  0.8+  0.2+    020415 474 (2.7-  1.2+)
970309 261  0.1+  0.2-    020408 246  1.0+  0.6+    020415 474 (3.7+  2.1-)
000410 608  0.2-  0.2-    020408 557  0.2+  0.5-    020415 474  0.0   0.9-
000410 608  0.2+  0.4-    020408 246  0.6+  0.3-    020415 557  1.5+  0.6+
000410 608  0.3-  0.1-    020408 246  0.5+  0.4+    020415 557  0.2+  0.5+
010319 608  0.3-  0.0     020408 493  0.1+  0.3+    020415 557  1.2-  0.2+
010319 608  0.3-  0.2-    020408 493  0.0   0.3+    020416 474 (3.3+  1.7-)
020114 608  0.1+  0.6-    020408 493  0.1+  0.3+    020416 474 (4.3+  2.9-)
020114 608  0.3+  1.1-    020408 557  0.5+  0.4-    020417 711  0.7+  0.0
020114 608  0.0   1.2-    020409 422  0.2+  0.1+    020417 711  0.8-  0.3+
020226 644  0.7-  0.6+    020409 422  0.1+  0.1-    020417 448  0.9-  1.6-
020226 644  1.0-  0.7+    020409 422  0.0   0.7+    020417 448  1.9-  1.6-
020404 608  0.9-  0.9+    020409 422  1.1-  0.1+    020417 711  0.2+  0.0
020404 608  0.4+  0.4+    020410 649  0.7-  0.6-    020417 448 (1.6-  2.7-)
020404 608  0.2-  0.3+    020410 649  0.5-  0.4+    020417 474  0.1+  0.1-
020405 644  0.6+  0.5+    020410 428 (2.3+  0.8-)   020417 474  0.2-  0.0
020405 644  0.3-  0.1-    020414 644  0.3+  0.7+    020423 413  0.0   0.0
020405 644  0.7+  0.3+    020414 644  0.1-  0.2-    020423 413  0.1-  0.2+
020408 644  0.1+  0.1+    020414 644  0.2+  0.1+    020423 413  0.1+  0.0
020408 644  0.1-  0.0     020415 644  0.4+  0.0     020423 413  0.0   0.0
020408 644  0.1-  0.0     020415 644  0.5+  0.0     020601 568  0.3-  0.2-
020408 246  1.1+  0.6+    020415 644  0.4+  0.0     020601 568  0.4-  0.4-

Ephemeris:
2002 GB10                a,e,i = 25.14, 0.40, 13                 q = 15.187
Date    TT    R. A. (2000) Decl.     Delta      r     Elong.  Phase     V
2002 11 12    12 36.29   -15 31.1   15.975   15.188    36.3     2.2    19.8
2002 11 22    12 38.65   -15 52.4   15.866   15.188    45.3     2.7    19.8
2002 12 02    12 40.74   -16 12.8   15.738   15.188    54.6     3.0    19.8
2002 12 12    12 42.51   -16 32.1   15.594   15.187    64.0     3.3    19.8
2002 12 22    12 43.92   -16 49.8   15.437   15.187    73.5     3.6    19.8
2003 01 01    12 44.93   -17 05.6   15.273   15.187    83.2     3.7    19.8
2003 01 11    12 45.51   -17 19.1   15.105   15.187    93.0     3.7    19.8
2003 01 21    12 45.66   -17 30.1   14.939   15.187   102.8     3.6    19.7
2003 01 31    12 45.39   -17 38.3   14.779   15.187   112.7     3.4    19.7
2003 02 10    12 44.70   -17 43.5   14.631   15.187   122.7     3.1    19.6
2003 02 20    12 43.64   -17 45.6   14.500   15.187   132.7     2.7    19.6
2003 03 02    12 42.25   -17 44.8   14.390   15.188   142.5     2.3    19.6
2003 03 12    12 40.61   -17 41.0   14.303   15.188   152.0     1.8    19.5
2003 03 22    12 38.79   -17 34.7   14.244   15.188   160.7     1.2    19.5
2003 04 01    12 36.89   -17 26.1   14.214   15.189   166.8     0.9    19.4
2003 04 11    12 34.99   -17 15.8   14.213   15.189   166.4     0.9    19.4
2003 04 21    12 33.19   -17 04.4   14.242   15.189   159.8     1.3    19.5
2003 05 01    12 31.57   -16 52.5   14.299   15.190   151.2     1.8    19.5
2003 05 11    12 30.20   -16 40.6   14.382   15.190   142.0     2.3    19.6
2003 05 21    12 29.14   -16 29.5   14.489   15.191   132.5     2.8    19.6
2003 05 31    12 28.43   -16 19.5   14.615   15.192   123.1     3.2    19.7
2003 06 10    12 28.12   -16 11.3   14.756   15.192   113.7     3.5    19.7
2003 06 20    12 28.21   -16 05.1   14.910   15.193   104.3     3.7    19.7
2003 06 30    12 28.71   -16 01.3   15.070   15.194    95.1     3.8    19.8
2003 07 10    12 29.61   -16 00.0   15.233   15.195    86.0     3.8    19.8
2003 07 20    12 30.90   -16 01.4   15.394   15.196    76.9     3.7    19.8
2003 07 30    12 32.53   -16 05.5   15.549   15.197    68.0     3.6    19.8
2003 08 09    12 34.50   -16 12.2   15.694   15.198    59.1     3.3    19.8
2003 08 19    12 36.75   -16 21.5   15.825   15.199    50.3     2.9    19.8
2003 08 29    12 39.25   -16 33.1   15.940   15.200    41.6     2.5    19.8
2003 09 08    12 41.95   -16 46.9   16.035   15.201    33.1     2.1    19.8

Brian G. Marsden             (C) Copyright 2002 MPC           M.P.E.C. 2002-Q44

Read MPEC 2002-Q43 Read MPEC 2002-Q45


Our Web policy. Index to the CBAT/MPC/ICQ pages.

MPC